Notices

What's New in latest Release from April 7th, 2021:

- Updated Glossary, including Speed of Maximum Gust, and Total Hourly Precipitation

- Updated national and regional climate services offices contacts and prices information

- Addition of station inventory lists for 1981-2010, 1971-2000, and 1961-1990 Normals.

If you haven't already, please take our survey and provide feedback about our website: https://eccc.sondage-survey.ca/f/LanguageSelection.aspx?s=442ca660-fcf1-47c0-95a9-59707d6fd709

Hourly Data Report for October 27, 2017

VICTORIA UNIVERSITY CS
BRITISH COLUMBIA

48°27'25.200" N
123°18'16.600" W
60.10 m
1018598
71783
WYJ

Download Data

Hourly Data (October 2017)
Hourly Data Report for October 27, 2017
TIME
LST
Temp Definition
°C
Dew Point Definition
°C
Rel Hum Definition
%
Precip. Amount Definition
mm

Wind Dir Definition
10's deg

Wind Spd Definition
km/h
Visibility Definition
km
Stn Press Definition
kPa
Hmdx Definition


Wind Chill Definition


Weather Definition


00:00 9.3 7.1 86 0.0 1 3   101.71     LegendNANA
01:00 9.6 6.9 84 0.0 2 6   101.70     LegendNANA
02:00 9.8 7.1 83 0.0 36 9   101.70     LegendNANA
03:00 9.1 6.4 83 0.0 1 6   101.64     LegendNANA
04:00 9.8 6.3 79 0.0 35 7   101.61     LegendNANA
05:00 10.2 6.4 78 0.0 36 11   101.58     LegendNANA
06:00 9.3 6.4 82 0.0 1 10   101.58     LegendNANA
07:00 10.3 6.7 79 0.0 36 10   101.59     LegendNANA
08:00 9.9 7.4 85 0.0 2 11   101.59     LegendNANA
09:00 11.3 7.3 76 0.0 1 9   101.62     LegendNANA
10:00 12.6 7.3 70 0.0 2 11   101.61     LegendNANA
11:00 13.5 7.4 67 0.0 1 12   101.58     LegendNANA
12:00 14.5 7.3 62 0.0 1 13   101.55     LegendNANA
13:00 14.8 7.5 62 0.0 1 10   101.48     LegendNANA
14:00 14.9 7.8 62 0.0 1 9   101.43     LegendNANA
15:00 15.4 7.4 59 0.0 2 6   101.38     LegendNANA
16:00 14.5 6.8 60 0.0 3 4   101.35     LegendNANA
17:00 12.4 6.7 68 0.0 1 5   101.32     LegendNANA
18:00 11.6 6.4 70 0.0 2 6   101.29     LegendNANA
19:00 10.8 6.1 73 0.0 1 3   101.26     LegendNANA
20:00 8.9 6.7 86 0.0 33 4   101.23     LegendNANA
21:00 10.6 6.8 77 0.0 33 8   101.19     LegendNANA
22:00 10.3 7.0 80 0.0 1 6   101.18     LegendNANA
23:00 10.6 7.4 80 0.0 35 6   101.14     LegendNANA

Notes on Data Quality.

Legend

  • E = Estimated
  • M = Missing
  • NA = Not Available*
  • [empty] = Indicates an unobserved value
Date modified: